Location: Waldport
(44.4270°N, 124.0680°W)
Time: 03:42:28
(UTC-07:00)

Meteor 1-26 Rocket - Visible Passes

Search period start: 23 May 2017 00:00
Search period end: 02 June 2017 00:00
Orbit: 833 x 902 km, 81.3° (Epoch: 22 May)

Date Brightness Start Highest point End Pass type
(mag) Time Alt. Az. Time Alt. Az. Time Alt. Az.
23 May 5.0 05:04:30 10° N 05:10:15 59° ENE 05:15:50 10° SSE visible
24 May 5.0 04:57:34 10° N 05:03:18 60° ENE 05:08:53 10° SSE visible
25 May 4.9 04:50:38 10° N 04:56:22 60° ENE 05:01:56 10° SSE visible
26 May 4.9 04:43:42 10° N 04:49:25 61° ENE 04:55:00 10° SSE visible
27 May 4.8 04:36:45 10° N 04:42:29 62° ENE 04:48:03 10° SSE visible
28 May 4.8 04:29:49 10° N 04:35:32 63° ENE 04:41:07 10° SSE visible
29 May 4.7 04:22:52 10° N 04:28:36 64° ENE 04:34:10 10° SSE visible
30 May 4.7 04:15:56 10° N 04:21:39 65° ENE 04:27:13 10° SSE visible
31 May 7.3 02:30:01 10° NE 02:30:11 10° ENE 02:30:21 10° ENE visible
31 May 4.6 04:09:00 10° N 04:14:43 66° ENE 04:20:16 10° SSE visible
01 Jun 7.2 02:22:39 10° NE 02:23:15 10° ENE 02:23:52 10° ENE visible
01 Jun 4.6 04:02:04 10° N 04:07:46 67° ENE 04:13:19 10° SSE visible
